When you browse on this site, cookies collect data to enhance your experience and personalize the content and advertising you see.
Visit our Privacy Policy to learn more. By continuing to use the site, you agree to this use of cookies and data.
  • In Latvia
  • List of Countries
  • For 7 days
  • Water Temperature
  • Satellite Maps
  • Weather Map
  • Weather Widgets
  • user-avatar
    Login

    Hourly Weather Yverdon-les-Bains

    Today, 24 July, Wednesday

    Time Temperature Precipitation Wind Pressure Humidity
    00:00 +23°C° 0 mm 1 mps 724 mmHg 82%
    01:00 +23°C° 0 mm 1 mps 724 mmHg 83%
    02:00 +20°C° 0 mm 0 mps 724 mmHg 83%
    03:00 +20°C° 0 mm 0 mps 724 mmHg 83%
    04:00 +21°C° 0 mm 0 mps 724 mmHg 80%
    05:00 +22°C° 0 mm 0 mps 724 mmHg 78%
    06:00 +23°C° 0 mm 0 mps 724 mmHg 76%
    07:00 +25°C° 0 mm 0 mps 724 mmHg 68%
    08:00 +29°C° 0 mm 1 mps 724 mmHg 61%
    09:00 +31°C° 0 mm 1 mps 725 mmHg 54%
    10:00 +33°C° 0 mm 1 mps 724 mmHg 50%
    11:00 +34°C° 0 mm 1 mps 724 mmHg 46%
    12:00 +35°C° 0 mm 1 mps 724 mmHg 42%
    13:00 +35°C° 0 mm 1 mps 724 mmHg 40%
    14:00 +35°C° 0 mm 1 mps 724 mmHg 39%
    15:00 +35°C° 0 mm 1 mps 724 mmHg 37%
    16:00 +34°C° 0 mm 1 mps 724 mmHg 46%
    17:00 +32°C° 0 mm 1 mps 723 mmHg 55%
    18:00 +30°C° 0 mm 1 mps 723 mmHg 64%
    19:00 +29°C° 0 mm 1 mps 724 mmHg 65%
    20:00 +27°C° 0 mm 1 mps 724 mmHg 65%
    21:00 +25°C° 0 mm 1 mps 724 mmHg 65%
    22:00 +25°C° 0 mm 1 mps 724 mmHg 64%
    23:00 +24°C° 0 mm 1 mps 724 mmHg 63%

    Tomorrow, 25 July, Thursday

    Time Temperature Precipitation Wind Pressure Humidity
    00:00 +24°C° 0 mm 1 mps 724 mmHg 61%
    01:00 +24°C° 0 mm 1 mps 724 mmHg 64%
    02:00 +23°C° 0 mm 1 mps 724 mmHg 67%
    03:00 +23°C° 0 mm 1 mps 723 mmHg 69%
    04:00 +24°C° 0 mm 1 mps 723 mmHg 69%
    05:00 +24°C° 0 mm 1 mps 723 mmHg 70%
    06:00 +23°C° 0 mm 0 mps 723 mmHg 70%
    07:00 +27°C° 0 mm 1 mps 724 mmHg 64%
    08:00 +29°C° 0 mm 1 mps 724 mmHg 58%
    09:00 +31°C° 0 mm 1 mps 724 mmHg 53%
    10:00 +32°C° 0 mm 1 mps 723 mmHg 50%
    11:00 +33°C° 0 mm 1 mps 723 mmHg 47%
    12:00 +34°C° 0 mm 1 mps 723 mmHg 44%
    13:00 +34°C° 0 mm 1 mps 723 mmHg 44%
    14:00 +34°C° 0 mm 1 mps 723 mmHg 44%
    15:00 +34°C° 0 mm 1 mps 722 mmHg 44%
    16:00 +32°C° 0.2 mm 1 mps 722 mmHg 53%
    17:00 +31°C° 0.2 mm 1 mps 722 mmHg 61%
    18:00 +29°C° 0.2 mm 1 mps 722 mmHg 70%
    19:00 +27°C° 0.3 mm 1 mps 722 mmHg 71%
    20:00 +26°C° 0.3 mm 1 mps 722 mmHg 73%
    21:00 +25°C° 0.3 mm 1 mps 722 mmHg 74%
    22:00 +24°C° 0.2 mm 1 mps 722 mmHg 76%
    23:00 +22°C° 0.2 mm 0 mps 722 mmHg 78%

    Day after tomorrow, 26 July, Friday

    Time Temperature Precipitation Wind Pressure Humidity
    00:00 +21°C° 0.2 mm 0 mps 722 mmHg 80%
    01:00 +21°C° 0.5 mm 0 mps 721 mmHg 82%
    02:00 +20°C° 0.5 mm 0 mps 721 mmHg 85%
    03:00 +20°C° 0.5 mm 0 mps 721 mmHg 87%
    04:00 +20°C° 1.1 mm 0 mps 721 mmHg 88%
    05:00 +21°C° 1.1 mm 0 mps 721 mmHg 88%
    06:00 +22°C° 1.1 mm 0 mps 721 mmHg 89%
    07:00 +23°C° 0.4 mm 0 mps 721 mmHg 82%
    08:00 +25°C° 0.4 mm 0 mps 721 mmHg 76%
    09:00 +27°C° 0.4 mm 0 mps 721 mmHg 69%
    10:00 +28°C° 0 mm 0 mps 720 mmHg 63%
    11:00 +31°C° 0 mm 1 mps 720 mmHg 57%
    12:00 +33°C° 0 mm 1 mps 720 mmHg 51%
    13:00 +32°C° 0.5 mm 1 mps 719 mmHg 56%
    14:00 +31°C° 0.5 mm 1 mps 719 mmHg 61%
    15:00 +30°C° 0.5 mm 1 mps 718 mmHg 65%
    16:00 +28°C° 2.1 mm 1 mps 718 mmHg 73%
    17:00 +26°C° 2.1 mm 2 mps 718 mmHg 81%
    18:00 +24°C° 2.1 mm 2 mps 717 mmHg 89%
    19:00 +23°C° 0.9 mm 2 mps 717 mmHg 89%
    20:00 +21°C° 0.9 mm 2 mps 717 mmHg 90%
    21:00 +21°C° 0.9 mm 1 mps 717 mmHg 91%
    22:00 +20°C° 0.5 mm 2 mps 717 mmHg 92%
    23:00 +20°C° 0.5 mm 2 mps 717 mmHg 93%

    27 July, Saturday

    Time Temperature Precipitation Wind Pressure Humidity
    00:00 +20°C° 0.5 mm 2 mps 717 mmHg 94%
    01:00 +21°C° 0.3 mm 1 mps 717 mmHg 94%
    02:00 +20°C° 0.3 mm 1 mps 717 mmHg 94%
    03:00 +20°C° 0.3 mm 1 mps 716 mmHg 94%
    04:00 +19°C° 0.1 mm 0 mps 716 mmHg 93%
    05:00 +19°C° 0.1 mm 0 mps 716 mmHg 92%
    06:00 +20°C° 0.1 mm 0 mps 716 mmHg 92%
    07:00 +21°C° 0.3 mm 0 mps 716 mmHg 88%
    08:00 +22°C° 0.3 mm 0 mps 716 mmHg 85%
    09:00 +23°C° 0.3 mm 0 mps 715 mmHg 82%
    10:00 +26°C° 1.3 mm 1 mps 715 mmHg 80%
    11:00 +26°C° 1.3 mm 1 mps 715 mmHg 77%
    12:00 +27°C° 1.3 mm 1 mps 715 mmHg 75%
    13:00 +25°C° 2.3 mm 1 mps 715 mmHg 81%
    14:00 +24°C° 2.3 mm 2 mps 714 mmHg 87%
    15:00 +21°C° 2.3 mm 3 mps 714 mmHg 93%
    16:00 +20°C° 2.6 mm 2 mps 714 mmHg 95%
    17:00 +19°C° 2.6 mm 2 mps 714 mmHg 96%
    18:00 +18°C° 2.6 mm 2 mps 714 mmHg 97%
    19:00 +18°C° 1.7 mm 2 mps 715 mmHg 97%
    20:00 +18°C° 1.7 mm 2 mps 715 mmHg 96%
    21:00 +17°C° 1.7 mm 2 mps 715 mmHg 96%
    22:00 +17°C° 0.7 mm 2 mps 715 mmHg 96%
    23:00 +17°C° 0.7 mm 2 mps 715 mmHg 96%

    28 July, Sunday

    Time Temperature Precipitation Wind Pressure Humidity
    00:00 +17°C° 0.7 mm 2 mps 715 mmHg 96%
    01:00 +17°C° 0.4 mm 2 mps 715 mmHg 96%
    02:00 +17°C° 0.4 mm 2 mps 715 mmHg 96%
    03:00 +16°C° 0.4 mm 2 mps 715 mmHg 95%
    04:00 +16°C° 0.2 mm 2 mps 715 mmHg 95%
    05:00 +16°C° 0.2 mm 2 mps 716 mmHg 95%
    06:00 +16°C° 0.2 mm 2 mps 716 mmHg 94%
    07:00 +16°C° 0.3 mm 2 mps 717 mmHg 94%
    08:00 +16°C° 0.3 mm 2 mps 717 mmHg 93%
    09:00 +16°C° 0.3 mm 2 mps 717 mmHg 93%
    10:00 +16°C° 0.1 mm 2 mps 718 mmHg 91%
    11:00 +16°C° 0.1 mm 2 mps 718 mmHg 90%
    12:00 +16°C° 0.1 mm 1 mps 718 mmHg 88%
    13:00 +16°C° 0 mm 1 mps 718 mmHg 88%
    14:00 +16°C° 0 mm 1 mps 719 mmHg 88%
    15:00 +16°C° 0 mm 1 mps 719 mmHg 88%
    16:00 +16°C° 0 mm 1 mps 719 mmHg 88%
    17:00 +16°C° 0 mm 1 mps 719 mmHg 89%
    18:00 +16°C° 0 mm 1 mps 719 mmHg 89%
    19:00 +16°C° 0 mm 1 mps 720 mmHg 89%
    20:00 +16°C° 0 mm 1 mps 720 mmHg 90%
    21:00 +15°C° 0 mm 0 mps 720 mmHg 90%
    22:00 +15°C° 0 mm 0 mps 720 mmHg 90%
    23:00 +15°C° 0 mm 0 mps 720 mmHg 91%

    29 July, Monday

    Time Temperature Precipitation Wind Pressure Humidity
    00:00 +15°C° 0 mm 0 mps 720 mmHg 91%
    01:00 +15°C° 0 mm 0 mps 720 mmHg 91%
    02:00 +15°C° 0 mm 0 mps 720 mmHg 91%
    03:00 +15°C° 0 mm 0 mps 720 mmHg 91%
    04:00 +15°C° 0 mm 0 mps 720 mmHg 92%
    05:00 +16°C° 0 mm 1 mps 720 mmHg 92%
    06:00 +16°C° 0 mm 1 mps 720 mmHg 92%
    07:00 +19°C° 0 mm 1 mps 721 mmHg 89%
    08:00 +20°C° 0 mm 1 mps 721 mmHg 85%
    09:00 +20°C° 0 mm 2 mps 721 mmHg 82%
    10:00 +21°C° 0 mm 2 mps 721 mmHg 79%
    11:00 +22°C° 0 mm 3 mps 721 mmHg 77%
    12:00 +22°C° 0 mm 3 mps 721 mmHg 74%
    13:00 +24°C° 0 mm 3 mps 721 mmHg 74%
    14:00 +24°C° 0 mm 3 mps 721 mmHg 73%
    15:00 +25°C° 0 mm 3 mps 721 mmHg 73%
    16:00 +24°C° 0 mm 2 mps 721 mmHg 76%
    17:00 +24°C° 0 mm 2 mps 721 mmHg 80%
    18:00 +23°C° 0 mm 2 mps 721 mmHg 84%
    19:00 +21°C° 0 mm 2 mps 722 mmHg 87%
    20:00 +20°C° 0 mm 2 mps 722 mmHg 90%
    21:00 +19°C° 0 mm 1 mps 722 mmHg 94%
    22:00 +19°C° 0 mm 1 mps 722 mmHg 94%
    23:00 +19°C° 0 mm 1 mps 722 mmHg 94%
    Show more